Location: Aulagny
(45.1643°N, 4.3096°E)
Time: 19:18:27
(UTC+00:00)

Cosmos 1833 Rocket - Pass Details

Date: 21 October 2019
Orbit: 833 x 839 km, 71.0° (Epoch: 11 November)

Event Time Altitude Azimuth Distance (km) Brightness Sun altitude
Rises 17:26:08 0° 337° (NNW) 3,392 6.1 -7.4°
Reaches altitude 10° 17:28:40 10° 342° (NNW) 2,455 5.3 -7.8°
Maximum altitude 17:34:09 52° 59° (ENE) 1,036 2.9 -8.8°
Drops below altitude 10° 17:39:37 10° 135° (SE) 2,444 4.7 -9.8°
Sets 17:42:06 0° 141° (SE) 3,375 5.5 -10.2°
